Weather History for Fort Wayne, IN

Change the Weather History Date:

Sunday, April 21, 2013

  Actual Average Record
Temperature  
Mean Temperature 39 °F 52 °F  
Max Temperature 51 °F 63 °F 87 °F (1985)
Min Temperature 26 °F 41 °F 21 °F (1907)
Degree Days  
Heating Degree Days 26 13  
Month to date heating degree days 379 354  
Since 1 July heating degree days 5752 5778  
Cooling Degree Days 0 0  
Month to date cooling degree days 0 0  
Year to date cooling degree days 0 0  
Moisture  
Dew Point 26 °F    
Average Humidity 61    
Maximum Humidity 79    
Minimum Humidity 42    
Precipitation  
Precipitation 0.00 in 0.12 in 1.26 in (1924)
Month to date precipitation 5.31 2.52  
Year to date precipitation 12.94 9.53  
Snow  
Snow 0.00 in 0.00 in 4.70 in (1924)
Month to date snowfall T 0.9  
Since 1 July snowfall 38.5 33.4  
Snow Depth 0.00 in    
Sea Level Pressure  
Sea Level Pressure 30.51 in    
Wind  
Wind Speed 9 mph (East)    
Max Wind Speed 16 mph    
Max Gust Speed 21 mph    
Visibility 10 miles    
Events      
T = Trace of Precipitation, MM = Missing Value Source: NWS Daily Summary

Daily Weather History Graph

Daily Weather History Graph

Search for Another Location

Airport:

Trip Planner

Search our weather history database for the weather conditions in past years. The results will help you decide how hot, cold, wet, or windy it might be!

Date:

Astronomy

Apr. 21, 2013 Rise Set
Actual Time 6:52 AM EDT 8:27 PM EDT
Civil Twilight 6:23 AM EDT 8:56 PM EDT
Nautical Twilight 5:48 AM EDT 9:31 PM EDT
Astronomical Twilight 5:11 AM EDT 10:08 PM EDT
Moon 4:09 PM EDT (4/21) 4:16 AM EDT (4/21)
Length of Visible Light 14h 32m
Length of Day
13h 34m
Waxing Gibbous, 79% of the Moon is Illuminated
Apr 21
Waxing Gibbous
Apr 25
Full
May 2
Last Quarter
May 9
New
May 18
First Quarter

Hourly Weather History & Observations

Time (EDT) Temp. Windchill Dew Point Humidity Pressure Visibility Wind Dir Wind Speed Gust Speed Precip Events Conditions
12:54 AM 32.0 °F 28.7 °F 17.1 °F 54% 30.48 in 10.0 mi NE 3.5 mph - N/A   Clear
1:54 AM 30.9 °F 27.5 °F 18.0 °F 59% 30.48 in 10.0 mi NE 3.5 mph - N/A   Clear
2:54 AM 28.9 °F 23.9 °F 19.9 °F 69% 30.49 in 10.0 mi NE 4.6 mph - N/A   Clear
3:54 AM 28.0 °F 24.2 °F 19.9 °F 72% 30.49 in 10.0 mi ENE 3.5 mph - N/A   Partly Cloudy
4:54 AM 28.0 °F 22.8 °F 19.0 °F 69% 30.51 in 10.0 mi NE 4.6 mph - N/A   Partly Cloudy
5:54 AM 26.1 °F 21.9 °F 19.9 °F 78% 30.53 in 10.0 mi ENE 3.5 mph - N/A   Partly Cloudy
6:54 AM 27.0 °F 23.0 °F 19.0 °F 72% 30.56 in 10.0 mi ENE 3.5 mph - N/A   Partly Cloudy
7:54 AM 30.0 °F 24.1 °F 24.1 °F 79% 30.58 in 10.0 mi East 5.8 mph - N/A   Mostly Cloudy
8:54 AM 34.0 °F 28.0 °F 25.0 °F 70% 30.59 in 10.0 mi East 6.9 mph - N/A   Mostly Cloudy
9:54 AM 37.9 °F 30.5 °F 26.1 °F 62% 30.59 in 10.0 mi ESE 11.5 mph - N/A   Mostly Cloudy
10:54 AM 41.0 °F 34.7 °F 27.0 °F 57% 30.60 in 10.0 mi ESE 10.4 mph - N/A   Mostly Cloudy
11:54 AM 42.1 °F 35.7 °F 27.0 °F 55% 30.59 in 10.0 mi ESE 11.5 mph - N/A   Mostly Cloudy
12:54 PM 45.0 °F 39.3 °F 28.0 °F 52% 30.58 in 10.0 mi ESE 11.5 mph - N/A   Overcast
1:54 PM 46.0 °F 40.6 °F 26.1 °F 46% 30.55 in 10.0 mi East 11.5 mph - N/A   Overcast
2:54 PM 48.0 °F - 27.0 °F 44% 30.53 in 10.0 mi ESE 10.4 mph 17.3 mph N/A   Mostly Cloudy
3:54 PM 48.9 °F - 27.0 °F 43% 30.50 in 10.0 mi East 9.2 mph - N/A   Mostly Cloudy
4:54 PM 50.0 °F - 28.9 °F 44% 30.47 in 10.0 mi East 9.2 mph - N/A   Mostly Cloudy
5:54 PM 50.0 °F - 28.9 °F 44% 30.46 in 10.0 mi East 10.4 mph - N/A   Scattered Clouds
6:54 PM 50.0 °F - 30.9 °F 48% 30.45 in 10.0 mi East 13.8 mph - N/A   Mostly Cloudy
7:54 PM 48.0 °F - 30.0 °F 50% 30.45 in 10.0 mi East 13.8 mph - N/A   Mostly Cloudy
8:54 PM 44.1 °F 38.6 °F 30.9 °F 60% 30.45 in 10.0 mi East 10.4 mph - N/A   Mostly Cloudy
9:54 PM 41.0 °F 35.8 °F 32.0 °F 70% 30.45 in 10.0 mi East 8.1 mph - N/A   Scattered Clouds
10:54 PM 39.9 °F 32.9 °F 30.9 °F 70% 30.45 in 10.0 mi East 11.5 mph - N/A   Scattered Clouds
11:54 PM 39.0 °F 32.3 °F 33.1 °F 79% 30.44 in 10.0 mi East 10.4 mph - N/A   Clear